User: anonymous   Login
Location: Unspecified
(0.0000°N, 0.0000°E)
Time: 01:43:34
(UTC+00:00)
Language:

USA 238 DEB - Orbit

View from above orbital plane
View from above orbital plane
View from above satellite
View from above satellite

Ground track
Ground track

The orbit data is extracted from the following two-line orbital elements,

1 38773U 12048P   17116.86946752 0.00000000  00000-0  00000-0 0    09
2 38773  63.4356  71.7187 0024000  13.6191 346.3809 13.40856240    01
Epoch (UTC): 26 April 2017 20:52:01
Eccentricity: 0.0024000
inclination: 63.4356°
perigee height: 1088 km
apogee height: 1124 km
right ascension of ascending node: 71.7187°
argument of perigee: 13.6191°
revolutions per day: 13.40856240
mean anomaly at epoch: 346.3809°
orbit number at epoch: 0

The dashed part of the orbit path shows where the satellite is in the earth's shadow,  

DLR